Tracking 19242 objects as of 20-Sep-2018
HD Live streaming from Space Station
objects crossing your sky now

FENGYUN 1C DEB

Track FENGYUN 1C DEB now!
10-day predictions


NORAD ID: 36266
Int'l Code: 1999-025DWT
Perigee: 830.3 km
Apogee: 928.8 km
Inclination: 98.9 °
Period: 102.4 minutes
Semi major axis: 7250 km
RCS: 0.0034 m2 (small)
Launch date: May 10, 1999
Source: People's Republic of China (PRC)
Launch site: Taiyaun Space Center, China (TSC)

Note: This is SATELLITE DEBRIS
aabbcc
Your satellite tracking list
Your tracking list is empty




NASA's NSSDC Master Catalog

Two Line Element Set (TLE):
1 36266U 99025DWT 18263.00831197  .00000717  00000-0  45272-3 0  9995
2 36266  98.9108 182.3041 0067864 175.8029 184.3723 14.06198924503046
Source of the keplerian elements: AFSPC